Location: ?ejeti?ky
(50.4060°N, 14.9016°E)
Time: 22:26:35
(UTC+00:00)

Cosmos 1842 Rocket - Visible Passes

Search period start: 18 June 2021 00:00
Search period end: 28 June 2021 00:00
Orbit: 604 x 635 km, 82.5° (Epoch: 18 June)

Date Brightness Start Highest point End Pass type
(mag) Time Alt. Az. Time Alt. Az. Time Alt. Az.
18 Jun 3.8 00:51:29 10° NNW 00:55:44 53° W 00:58:59 16° SSW visible
18 Jun 5.1 23:31:22 10° N 23:35:14 31° ENE 23:38:58 11° SE visible
19 Jun 4.6 01:09:17 10° NNW 01:13:06 31° W 01:16:06 15° SW visible
19 Jun 4.1 23:48:37 10° N 23:52:53 52° ENE 23:56:05 17° SSE visible
20 Jun 5.3 01:27:23 10° NW 01:30:22 18° W 01:33:14 11° SW visible
20 Jun 6.1 22:29:55 10° NE 22:31:51 13° ENE 22:33:47 10° E visible
21 Jun 3.5 00:06:03 10° N 00:10:25 89° W 00:13:14 22° S visible
21 Jun 5.8 01:46:31 10° WNW 01:47:33 11° W 01:48:35 10° W visible
21 Jun 5.6 22:46:25 10° NNE 22:49:41 20° ENE 22:52:57 10° ESE visible
22 Jun 3.9 00:23:39 10° NNW 00:27:52 50° W 00:30:25 22° SSW visible
22 Jun 4.9 23:03:28 10° N 23:07:25 33° ENE 23:10:28 15° SE visible
23 Jun 4.7 00:41:28 10° NNW 00:45:14 29° W 00:47:37 18° SW visible
23 Jun 4.0 23:20:44 10° N 23:25:02 56° ENE 23:27:41 22° SSE visible
24 Jun 5.4 00:59:37 10° NW 01:02:30 18° W 01:04:49 12° WSW visible
24 Jun 6.0 22:01:53 10° NNE 22:04:02 13° ENE 22:06:13 10° E visible
24 Jun 3.5 23:38:12 10° NNW 23:42:34 84° W 23:44:54 27° S visible
25 Jun 5.9 01:19:15 10° WNW 01:19:40 10° W 01:20:05 10° W visible
25 Jun 5.5 22:18:29 10° NNE 22:21:52 21° ENE 22:24:59 11° ESE visible
25 Jun 4.0 23:55:49 10° NNW 00:00:01 47° W 00:02:08 26° SSW visible
26 Jun 4.7 22:35:34 10° N 22:39:35 35° ENE 22:42:15 18° SE visible
27 Jun 4.8 00:13:39 10° NNW 00:17:21 28° W 00:19:24 19° SW visible
27 Jun 3.9 22:52:52 10° N 22:57:12 60° ENE 22:59:31 26° SSE visible
